Regional Weather Roundup
Issued by NWS

Home | Current Version | Previous Version | Text Only | Print | Product List | Glossary Off
Versions: 1 2 3 4 5 6 7 8 9 10 11 12 13 14 15 16 17 18 19 20 21 22 23 24 25 26 27 28 29 30 31 32 33 34 35 36 37 38 39 40 41 42 43 44 45 46 47 48 49 50

683
ASUS43 KLMK 251210
RWRKY
KENTUCKY REGIONAL WEATHER ROUNDUP
NATIONAL WEATHER SERVICE LOUISVILLE KY
800 AM EDT MON SEP 25 2017

NOTE "FAIR" INDICATES FEW OR NO CLOUDS BELOW 12,000 FEET
WITH NO SIGNIFICANT WEATHER AND/OR OBSTRUCTIONS TO VISIBILITY.

KYZ001>023-026-027-061>063-070>075-251300-
WESTERN AND SOUTH CENTRAL KENTUCKY

CITY           SKY/WX    TMP DP  RH WIND       PRES   REMARKS
PADUCAH        CLEAR     63  61  93 CALM      30.02R
HENDERSON      CLEAR     65  64  97 CALM      30.03R FOG
OWENSBORO      CLEAR     67  65  93 CALM      30.04R
HOPKINSVILLE   CLEAR     66  66 100 CALM      30.03R FOG
BOWLING GREEN  CLEAR     65  65 100 CALM      30.05R FOG
GLASGOW        FOG      N/A N/A N/A CALM      30.05R VSB 3/4
$$

KYZ024-025-028>034-038-045-046-053-251300-
NORTH CENTRAL KENTUCKY

CITY           SKY/WX    TMP DP  RH WIND       PRES   REMARKS
LOUISVILLE/SDF PTCLDY    68  64  87 SE3       30.04R
LOUISVILLE/LOU CLEAR     64  64 100 CALM      30.05R
FORT KNOX      CLEAR     62  62 100 CALM      30.04R
$$

KYZ035>037-039>044-047>052-055>060-089>105-251300-
NORTHEAST KENTUCKY

CITY           SKY/WX    TMP DP  RH WIND       PRES   REMARKS
LEXINGTON      CLEAR     64  59  83 CALM      30.07R
COVINGTON      PTCLDY    64  60  87 CALM      30.06R
FRANKFORT      CLEAR     61  58  90 CALM      30.05R
$$

KYZ054-064>069-076>088-106>120-251300-
SOUTHEAST KENTUCKY

CITY           SKY/WX    TMP DP  RH WIND       PRES   REMARKS
JACKSON        PTCLDY    66  60  81 CALM      30.08R
LONDON         PTCLDY    62  60  93 CALM      30.08R
SOMERSET       CLEAR     59  59 100 CALM      30.08R FOG
MIDDLESBORO    FOG       59  59 100 CALM      30.11R VSB 1/2
MONTICELLO     MOSUNNY   60  60 100 NE8       30.08S FOG
$$





USA.gov is the U.S. government's official web portal to all federal, state and local government web resources and services.